Manor / Austin Executive, TX

7:56 AM CST on December 13, 2019 (GMT -0600)
Manor / Austin Executive

Weather History for KEDC - October, 2019

Change the Weather History Date:

Thursday, October 24, 2019

  Actual Average (WUND) Record (WUND)
Temperature  
Mean Temperature 66 °F -  
Max Temperature 84 °F - - (-1)
Min Temperature 48 °F - - (-1)
Cooling Degree Days 1    
Growing Degree Days 16 (Base 50)    
Moisture  
Dew Point 59 °F    
Average Humidity 76    
Maximum Humidity 100    
Minimum Humidity 45    
Precipitation  
Precipitation 2.73 in - - ()
Sea Level Pressure  
Sea Level Pressure 29.98 in    
Wind  
Wind Speed 7 mph (SE)    
Max Wind Speed 30 mph    
Max Gust Speed 36 mph    
Visibility 9 miles    
Events Rain    
Averages and records for this station are not official NWS values.
T = Trace of Precipitation, MM = Missing Value Source: NWS Daily Summary

Daily Weather History Graph

Daily Weather History Graph

Search for Another Location

Airport or City:

Astronomy

Oct. 24, 2019 Rise Set
Actual Time 7:38 AM CDT 6:49 PM CDT
Civil Twilight 7:14 AM CDT 7:14 PM CDT
Nautical Twilight 6:45 AM CDT 7:42 PM CDT
Astronomical Twilight 6:17 AM CDT 8:10 PM CDT
Moon 3:35 AM CDT (10/24) 4:56 PM CDT (10/24)
Length of Visible Light 12h 00m
Length of Day
11h 11m
Waning Crescent, 16% of the Moon is Illuminated
Oct 24
Waning Crescent
Oct 27
New
Nov 4
First Quarter
Nov 12
Full
Nov 19
Last Quarter

Hourly Weather History & Observations

Time (CDT) Temp. Heat Index Dew Point Humidity Pressure Visibility Wind Dir Wind Speed Gust Speed Precip Events Conditions
12:15 AM 68.0 °F - 57.2 °F 68% 30.00 in 10.0 mi SSE 5.8 mph - N/A   Overcast
12:35 AM 68.0 °F - 57.2 °F 68% 30.00 in 10.0 mi SSE 8.1 mph - N/A   Overcast
12:55 AM 66.2 °F - 57.2 °F 73% 30.00 in 10.0 mi SSE 5.8 mph - N/A   Overcast
1:15 AM 66.2 °F - 59.0 °F 78% 30.00 in 10.0 mi Calm Calm - N/A   Overcast
1:35 AM 64.4 °F - 57.2 °F 77% 30.00 in 10.0 mi Calm Calm - N/A   Overcast
1:55 AM 64.4 °F - 57.2 °F 77% 30.00 in 10.0 mi Calm Calm - N/A   Overcast
2:15 AM 64.4 °F - 57.2 °F 77% 30.00 in 10.0 mi Calm Calm - N/A   Overcast
2:35 AM 62.6 °F - 57.2 °F 82% 30.00 in 10.0 mi Calm Calm - N/A   Overcast
2:55 AM 62.6 °F - 57.2 °F 82% 29.99 in 10.0 mi Calm Calm - N/A   Overcast
3:15 AM 62.6 °F - 57.2 °F 82% 29.99 in 10.0 mi Calm Calm - N/A   Overcast
3:35 AM 62.6 °F - 57.2 °F 82% 29.99 in 10.0 mi Calm Calm - N/A   Overcast
3:55 AM 62.6 °F - 57.2 °F 82% 29.98 in 10.0 mi Calm Calm - N/A   Overcast
4:15 AM 62.6 °F - 59.0 °F 88% 29.98 in 10.0 mi Calm Calm - N/A   Overcast
4:35 AM 62.6 °F - 59.0 °F 88% 29.98 in 10.0 mi Calm Calm - N/A   Overcast
4:55 AM 62.6 °F - 59.0 °F 88% 29.98 in 10.0 mi Calm Calm - N/A   Overcast
5:15 AM 62.6 °F - 59.0 °F 88% 29.98 in 10.0 mi ENE 3.5 mph - N/A   Overcast
5:35 AM 62.6 °F - 59.0 °F 88% 29.98 in 10.0 mi Calm Calm - N/A   Overcast
5:55 AM 62.6 °F - 59.0 °F 88% 29.98 in 10.0 mi ENE 4.6 mph - N/A   Overcast
6:15 AM 62.6 °F - 59.0 °F 88% 29.98 in 10.0 mi East 4.6 mph - N/A   Overcast
6:35 AM 62.6 °F - 59.0 °F 88% 29.98 in 10.0 mi Calm Calm - N/A   Overcast
6:55 AM 62.6 °F - 59.0 °F 88% 29.98 in 10.0 mi Calm Calm - N/A   Overcast
7:15 AM 62.6 °F - 59.0 °F 88% 29.99 in 10.0 mi Calm Calm - N/A   Overcast
7:35 AM 62.6 °F - 59.0 °F 88% 29.99 in 10.0 mi Calm Calm - N/A   Overcast
7:55 AM 62.6 °F - 59.0 °F 88% 30.00 in 10.0 mi Calm Calm - N/A   Overcast
8:15 AM 62.6 °F - 59.0 °F 88% 30.00 in 10.0 mi Calm Calm - N/A   Overcast
8:35 AM 64.4 °F - 59.0 °F 83% 30.01 in 10.0 mi East 4.6 mph - N/A   Overcast
8:55 AM 66.2 °F - 60.8 °F 83% 30.02 in 10.0 mi East 4.6 mph - N/A   Overcast
9:15 AM 66.2 °F - 62.6 °F 88% 30.02 in 10.0 mi East 5.8 mph - N/A   Overcast
9:35 AM 69.8 °F - 62.6 °F 78% 30.02 in 10.0 mi ESE 11.5 mph - N/A   Overcast
9:55 AM 71.6 °F - 62.6 °F 73% 30.02 in 10.0 mi SE 12.7 mph - N/A   Overcast
10:15 AM 73.4 °F - 64.4 °F 73% 30.02 in 10.0 mi SE 16.1 mph - N/A   Overcast
10:35 AM 73.4 °F - 64.4 °F 73% 30.01 in 10.0 mi SE 15.0 mph 20.7 mph N/A   Overcast
10:55 AM 75.2 °F - 64.4 °F 69% 30.01 in 10.0 mi SE 11.5 mph - N/A   Overcast
11:15 AM 75.2 °F - 64.4 °F 69% 30.01 in 10.0 mi SE 11.5 mph 16.1 mph N/A   Overcast
11:35 AM 77.0 °F - 64.4 °F 65% 30.01 in 10.0 mi South 9.2 mph - N/A   Overcast
11:55 AM 78.8 °F - 64.4 °F 61% 30.01 in 10.0 mi SSE 11.5 mph - N/A   Overcast
12:15 PM 78.8 °F - 64.4 °F 61% 30.00 in 10.0 mi SE 13.8 mph - N/A   Overcast
12:35 PM 80.6 °F 82.3 °F 64.4 °F 58% 29.99 in 10.0 mi SSE 10.4 mph - N/A   Mostly Cloudy
12:55 PM 80.6 °F 81.8 °F 62.6 °F 54% 29.98 in 10.0 mi SSE 8.1 mph 17.3 mph N/A   Mostly Cloudy
1:15 PM 82.4 °F 83.4 °F 62.6 °F 51% 29.97 in 10.0 mi South 4.6 mph 18.4 mph N/A   Mostly Cloudy
1:35 PM 82.4 °F 82.9 °F 60.8 °F 48% 29.96 in 10.0 mi South 10.4 mph 21.9 mph N/A   Scattered Clouds
1:55 PM 82.4 °F 82.5 °F 59.0 °F 45% 29.94 in 10.0 mi South 8.1 mph - N/A   Mostly Cloudy
2:15 PM 84.2 °F 84.4 °F 60.8 °F 45% 29.93 in 10.0 mi South 8.1 mph - N/A   Overcast
2:35 PM 82.4 °F 82.9 °F 60.8 °F 48% 29.92 in 10.0 mi South 10.4 mph - N/A   Overcast
2:55 PM 80.6 °F 81.8 °F 62.6 °F 54% 29.92 in 10.0 mi SE 11.5 mph - N/A   Overcast
3:15 PM 80.6 °F 82.3 °F 64.4 °F 58% 29.92 in 10.0 mi SE 10.4 mph - N/A   Overcast
3:35 PM 80.6 °F 82.3 °F 64.4 °F 58% 29.91 in 10.0 mi South 6.9 mph - N/A   Overcast
3:55 PM 82.4 °F 83.9 °F 64.4 °F 54% 29.90 in 10.0 mi SSE 12.7 mph - N/A   Overcast
4:15 PM 82.4 °F 83.9 °F 64.4 °F 54% 29.89 in 10.0 mi SE 10.4 mph - N/A   Overcast
4:35 PM 82.4 °F 83.9 °F 64.4 °F 54% 29.89 in 10.0 mi SSE 12.7 mph - N/A   Overcast
4:55 PM 82.4 °F 83.9 °F 64.4 °F 54% 29.88 in 10.0 mi SSE 8.1 mph - N/A   Overcast
5:15 PM 82.4 °F 83.9 °F 64.4 °F 54% 29.88 in 10.0 mi SSE 10.4 mph - N/A   Mostly Cloudy
5:35 PM 82.4 °F 83.9 °F 64.4 °F 54% 29.87 in 10.0 mi SE 12.7 mph 18.4 mph N/A   Mostly Cloudy
5:55 PM 82.4 °F 83.9 °F 64.4 °F 54% 29.87 in 10.0 mi SSE 9.2 mph - N/A   Mostly Cloudy
6:15 PM 80.6 °F 82.7 °F 66.2 °F 61% 29.86 in 10.0 mi SE 12.7 mph - N/A   Overcast
6:35 PM 78.8 °F - 66.2 °F 65% 29.86 in 10.0 mi ESE 11.5 mph - N/A   Mostly Cloudy
6:55 PM 78.8 °F - 66.2 °F 65% 29.84 in 10.0 mi ESE 13.8 mph - N/A   Mostly Cloudy
7:15 PM 78.8 °F - 66.2 °F 65% 29.87 in 10.0 mi SE 16.1 mph 21.9 mph N/A   Overcast
7:35 PM 60.8 °F - 57.2 °F 88% 29.94 in - NNW 29.9 mph 35.7 mph 0.49 in Rain Heavy Rain
7:55 PM 57.2 °F - 55.4 °F 94% 29.95 in 1.0 mi NW 18.4 mph 33.4 mph 1.46 in Rain Rain
8:15 PM 55.4 °F - 53.6 °F 94% 29.97 in 1.8 mi NNW 24.2 mph 28.8 mph 0.12 in Rain Light Rain
8:35 PM 53.6 °F - 53.6 °F 100% 29.99 in 3.0 mi NNW 25.3 mph 33.4 mph 0.18 in Rain Light Rain
8:55 PM 53.6 °F - 53.6 °F 100% 30.01 in 1.5 mi NNW 18.4 mph 27.6 mph 0.35 in Rain Heavy Rain
9:15 PM 51.8 °F - 50.0 °F 94% 30.04 in 1.8 mi NNW 15.0 mph 31.1 mph 0.13 in Rain Heavy Rain
9:35 PM 50.0 °F - 50.0 °F 100% 30.05 in 2.5 mi NNW 25.3 mph 32.2 mph 0.20 in Rain Light Rain
9:55 PM 50.0 °F - 50.0 °F 100% 30.05 in 3.0 mi NNW 16.1 mph 28.8 mph 0.26 in Rain Rain
10:15 PM 50.0 °F - 50.0 °F 100% 30.06 in 2.0 mi NNW 18.4 mph 27.6 mph 0.09 in Rain Rain
10:35 PM 50.0 °F - 48.2 °F 94% 30.10 in 2.5 mi NW 13.8 mph 20.7 mph 0.20 in Rain Rain
10:55 PM 50.0 °F - 48.2 °F 94% 30.11 in 2.0 mi NW 17.3 mph 20.7 mph 0.37 in Rain Rain
11:15 PM 48.2 °F - 48.2 °F 100% 30.13 in 2.5 mi NNW 16.1 mph 23.0 mph 0.09 in Rain Heavy Rain
11:35 PM 48.2 °F - 48.2 °F 100% 30.13 in 2.0 mi NNW 19.6 mph 27.6 mph 0.21 in Rain Rain
11:55 PM 48.2 °F - 48.2 °F 100% 30.12 in 3.0 mi NNW 16.1 mph 26.5 mph 0.29 in Rain Rain